Wind_Speed
8 9 9 9 12 14 8 6 4 5 4 5 5 5 6 6 6 7 8 8 9 9 9 9 9 8 7 6 6 5 5 4 3 3 3 3 3 3 2 2 2 3 3 3 3 3 4 3 3
7 7 7 10 12 8 3 3 3 6 6 6 6 6 6 6 7 7 8 8 9 9 9 9 9 8 8 7 7 6 5 4 3 3 3 3 3 3 2 2 2 3 3 3 3 4 4 4 4
6 6 7 9 8 5 3 4 5 5 6 6 6 6 6 7 7 7 8 8 9 9 9 9 9 9 8 8 7 6 6 4 3 2 2 2 3 3 2 3 1 2 3 4 4 4 4 5 5
4 5 6 6 5 3 5 5 5 4 6 6 6 6 7 7 7 8 7 7 8 9 9 9 9 9 9 9 8 8 7 5 4 3 2 3 3 3 3 3 2 1 1 2 2 4 4 4 4
5 4 3 4 3 4 6 7 6 5 6 6 7 6 7 6 6 6 6 7 8 8 9 9 9 9 9 10 9 9 8 6 4 4 3 3 4 3 5 3 2 1 0 0 0 2 2 2 3
5 3 0 2 3 7 8 7 6 6 6 7 8 7 7 6 5 6 6 7 7 8 8 9 9 9 9 9 9 9 8 6 4 4 3 3 3 4 4 4 3 2 1 1 1 1 1 2 2
6 3 2 2 4 9 10 9 8 8 7 6 8 8 8 6 6 6 6 7 7 8 8 8 8 9 9 9 10 9 8 6 5 4 3 3 3 3 4 3 2 2 1 1 0 1 1 2 2
7 4 5 4 6 8 11 9 10 8 9 8 8 8 7 8 8 8 7 7 8 8 8 8 8 8 9 10 10 10 8 7 5 4 4 3 3 3 3 3 2 2 1 1 0 1 1 2 2
8 6 6 5 6 9 11 11 11 9 10 10 9 8 8 9 9 8 7 7 8 8 8 8 7 8 8 9 10 9 8 7 6 5 4 4 3 3 2 2 2 1 0 0 1 1 1 2 2
9 7 7 7 9 11 12 11 11 9 11 12 10 8 9 9 9 8 7 7 8 8 8 8 8 8 8 9 10 9 8 8 6 5 4 4 3 3 3 2 2 2 2 2 2 2 3 3 3
11 10 9 10 12 13 12 11 10 11 11 13 12 9 10 10 9 8 7 7 7 8 8 7 9 9 9 9 9 9 9 9 7 6 6 5 4 3 3 2 3 3 2 3 3 3 3 3 4
13 13 13 13 14 13 13 12 11 11 12 13 13 12 11 10 9 9 8 8 8 8 8 9 9 10 9 10 10 10 9 9 8 7 7 5 4 4 4 3 3 3 4 4 5 5 4 5 5
15 15 15 16 15 14 14 13 12 12 13 14 13 12 11 11 10 10 9 9 9 9 9 9 9 10 10 10 10 10 10 9 10 8 7 6 6 5 5 5 4 5 5 5 6 6 6 6 6
15 15 15 15 15 15 15 14 13 13 13 14 12 12 12 12 12 11 11 10 10 10 10 9 10 10 10 10 10 10 10 10 10 9 8 7 7 6 6 6 6 6 6 6 7 7 7 7 7
15 16 16 15 14 14 14 14 13 14 15 14 13 13 14 14 13 12 12 12 12 11 10 10 11 11 11 11 11 10 10 10 9 9 9 8 8 7 7 7 6 6 6 7 7 8 7 7 8
13 14 14 12 13 15 15 15 13 15 16 16 15 14 15 15 14 14 14 14 13 13 12 12 12 12 12 13 12 12 11 10 9 9 9 9 9 8 8 7 7 7 7 7 8 9 8 8 9
12 13 14 12 14 16 16 17 15 18 17 17 18 16 17 16 16 15 15 15 14 14 14 13 13 13 13 14 14 14 13 12 11 10 10 10 10 9 9 9 9 8 8 8 8 8 9 9 9
13 13 14 14 16 19 19 19 19 20 19 19 20 19 19 18 17 17 17 16 15 14 15 14 14 14 14 14 15 15 14 13 13 12 11 11 11 10 10 9 10 9 9 9 9 10 10 10 10
14 14 15 16 18 21 21 21 22 21 21 21 21 22 21 20 19 19 18 18 17 16 16 16 16 16 16 16 15 15 16 15 15 14 13 13 12 12 11 10 10 10 10 10 10 10 11 11 11
17 18 17 17 18 20 22 23 25 23 23 23 23 23 22 21 22 21 20 20 19 18 18 18 17 17 17 17 16 16 16 16 15 15 15 14 14 13 12 12 12 11 11 11 11 11 12 12 12
20 20 19 20 19 21 22 23 23 23 22 23 24 23 24 23 22 22 20 20 20 20 19 20 19 19 18 18 18 17 18 17 17 17 16 16 16 15 14 13 13 13 13 13 12 12 13 12 12
20 20 21 20 20 22 22 23 22 22 22 23 24 24 25 25 23 22 22 21 21 21 22 21 21 20 20 20 19 19 19 19 19 19 18 18 17 17 16 15 15 15 15 14 13 13 13 13 13
20 19 20 20 21 22 22 24 23 23 23 23 23 23 25 26 25 24 24 23 24 24 24 23 23 22 22 22 21 20 20 21 21 20 20 20 19 18 18 17 16 16 15 15 15 14 13 13 13
20 19 19 19 20 22 20 22 24 24 23 23 24 24 25 26 26 26 26 26 26 25 25 24 24 25 24 24 24 23 22 22 22 21 21 21 21 19 18 19 18 17 16 16 16 15 14 14 13
19 18 18 19 20 21 19 21 23 25 22 24 27 28 27 27 28 28 27 28 27 27 27 27 25 25 25 25 25 25 24 24 23 23 22 21 21 20 18 19 19 18 17 16 17 17 15 15 14
19 19 20 19 19 19 19 21 22 23 23 24 28 29 29 29 28 28 28 29 29 28 28 28 27 26 26 26 26 26 26 25 25 24 23 23 22 21 20 20 19 19 19 18 17 17 17 16 15
20 20 21 21 21 22 21 21 24 25 25 26 29 30 30 29 29 29 28 29 30 29 28 28 28 28 28 27 27 27 27 28 27 26 25 25 24 23 24 22 22 22 21 20 18 18 18 17 17
21 21 20 22 23 23 23 23 26 26 27 28 30 30 32 30 29 29 29 30 30 30 29 29 30 30 30 29 29 28 28 28 28 27 26 26 25 25 24 23 24 24 23 22 20 19 19 19 19
21 22 23 24 24 25 25 26 28 29 29 29 30 31 31 30 28 28 28 30 30 31 31 31 31 32 31 31 31 31 30 29 29 28 28 27 26 25 25 24 24 23 23 22 21 21 21 20 20
22 22 22 25 25 25 26 28 28 30 31 32 32 31 31 33 31 30 30 30 30 31 32 31 31 32 32 32 32 32 31 30 30 30 29 27 26 26 25 24 23 23 23 23 23 22 21 21 21
Wind_Direction
90 87 87 83 71 65 50 45 8 347 345 5 9 13 20 13 8 13 15 20 21 23 19 19 21 21 20 18 15 9 11 13 16 27 37 43 50 54 54 109 140 172 168 165 173 166 166 175 175
95 93 91 77 69 63 35 17 346 340 345 356 358 3 7 7 7 10 16 19 21 20 21 22 21 21 18 15 13 8 9 6 9 21 32 33 36 42 50 94 137 164 174 169 172 176 182 190 183
106 103 83 64 57 40 353 333 327 336 335 341 343 355 354 359 3 5 15 18 19 17 18 21 23 22 19 17 12 7 3 360 5 12 19 20 17 21 36 41 44 167 170 165 159 166 173 174 178
131 109 80 51 31 12 305 302 314 327 324 326 334 348 349 351 356 359 10 12 12 15 15 18 20 19 17 15 12 8 3 359 360 6 15 15 18 35 40 41 37 65 154 162 144 160 162 166 178
145 106 67 56 357 308 291 293 314 319 315 320 320 337 340 348 349 355 7 8 5 12 13 14 13 11 12 13 13 9 6 6 5 2 8 9 24 35 38 52 55 60 85 148 141 144 140 167 195
176 135 282 84 311 288 288 294 301 300 306 314 318 329 330 339 354 357 350 357 359 3 10 9 8 7 7 9 8 8 3 360 5 3 3 7 17 26 29 45 65 91 123 95 84 154 149 169 197
191 171 185 198 264 281 288 290 292 302 302 302 310 316 320 322 327 334 340 347 350 357 3 3 3 3 2 2 4 5 4 4 5 3 360 4 6 24 27 28 39 88 134 123 80 194 176 165 191
191 200 214 219 255 274 282 284 286 289 286 292 297 304 311 320 317 322 330 333 340 346 349 354 357 359 358 359 1 2 2 3 1 3 2 357 353 360 19 34 48 58 120 143 190 294 257 234 234
196 212 217 222 254 269 274 278 280 277 284 289 291 299 310 311 316 319 320 324 331 335 337 342 351 354 354 356 359 0 1 1 0 359 360 357 352 349 2 22 41 48 75 253 272 304 296 286 271
219 220 222 229 242 252 265 273 281 285 286 288 291 298 303 307 313 317 314 318 324 327 329 336 342 350 352 355 356 358 0 1 1 358 360 5 9 9 12 14 25 28 4 344 314 318 308 283 280
231 240 232 240 241 248 262 273 278 280 281 287 291 294 295 307 316 317 315 314 316 318 323 329 336 345 350 350 351 352 353 356 353 348 346 351 351 350 350 350 354 351 335 326 317 301 294 282 295
233 240 246 247 253 254 259 264 268 269 273 278 284 291 296 303 308 308 306 308 310 309 313 320 327 333 340 345 349 350 350 353 349 341 335 338 340 334 328 328 328 325 315 319 317 309 299 289 291
243 243 249 248 255 257 258 262 267 268 272 275 284 289 292 296 298 300 301 305 305 301 302 311 320 324 328 335 342 344 345 347 348 340 331 324 322 322 320 316 315 311 304 303 307 307 300 298 294
245 247 248 251 252 256 259 263 267 270 274 277 282 287 288 290 292 295 297 299 302 299 296 300 305 313 318 324 331 336 336 338 343 344 334 325 320 316 317 312 308 309 307 302 302 307 294 295 296
241 247 248 251 258 259 260 263 265 270 273 275 281 284 285 289 292 292 291 297 297 297 296 296 298 303 308 312 319 325 326 327 333 337 332 324 319 313 309 308 308 306 304 308 306 306 297 291 296
244 249 253 258 264 263 262 269 268 269 271 272 275 278 281 286 289 292 292 293 294 294 294 296 296 297 299 302 307 313 315 316 320 326 326 321 316 310 305 300 300 302 300 299 302 305 302 297 296
248 253 254 258 263 265 265 269 268 270 271 271 273 275 278 281 284 287 288 291 292 292 291 293 293 294 294 295 298 303 305 309 312 314 315 315 313 308 303 300 298 299 298 297 297 300 300 298 298
248 250 257 257 261 263 261 264 266 270 272 272 275 276 276 278 283 282 283 287 289 289 289 290 290 290 291 292 294 295 296 300 303 304 305 305 306 305 302 298 295 294 294 297 297 298 299 295 294
243 245 251 255 261 262 265 265 261 265 269 270 273 276 276 276 281 282 283 284 286 288 286 286 286 287 288 287 288 290 291 292 294 297 298 299 298 297 297 296 294 290 291 295 296 297 298 296 295
250 249 247 248 255 261 265 266 263 261 265 270 270 273 274 274 276 279 280 281 283 284 283 282 282 284 284 284 286 288 289 288 290 293 294 295 294 291 291 292 291 290 292 294 294 296 297 297 298
255 255 254 258 261 265 267 268 268 269 265 266 269 271 274 273 271 274 279 281 281 282 282 281 281 281 281 282 284 285 285 285 285 287 290 288 288 287 286 286 288 290 291 292 292 294 296 297 297
253 258 258 257 259 263 269 272 270 270 266 268 272 270 271 273 271 273 276 280 281 282 282 280 279 279 279 280 281 281 281 283 283 282 284 285 283 281 280 283 285 287 290 287 288 291 294 295 296
252 254 257 258 259 258 262 270 272 268 267 272 276 275 272 272 274 275 274 275 277 278 281 279 279 278 276 277 277 279 279 279 281 282 282 282 281 278 279 282 283 286 286 283 284 289 292 293 295
255 254 258 263 265 265 265 266 266 266 269 273 277 277 275 275 275 275 273 274 275 276 277 278 277 274 273 273 275 276 276 277 280 279 280 280 277 278 278 278 280 282 282 281 282 286 290 293 296
255 258 261 263 266 272 274 269 266 267 266 267 273 275 275 276 274 272 272 273 274 275 276 275 275 273 271 271 271 273 274 275 277 278 277 277 278 278 278 277 277 277 279 280 281 283 286 290 293
258 257 258 259 263 270 272 271 270 266 262 266 268 271 273 273 273 273 274 273 273 273 274 273 273 273 271 269 269 270 271 272 274 276 276 276 278 277 278 278 278 277 277 277 279 281 285 289 291
258 258 260 262 263 265 265 266 271 267 264 263 267 271 270 270 272 276 275 273 272 271 271 270 272 273 271 270 269 268 269 271 273 274 275 275 275 276 277 276 276 276 274 275 278 279 282 285 287
259 256 257 260 262 265 264 262 266 269 266 268 268 270 273 272 272 273 275 273 271 270 270 270 271 273 273 271 270 270 270 270 272 271 272 273 273 273 275 275 274 273 271 271 274 277 280 281 283
260 259 255 256 256 261 264 265 266 266 267 265 267 267 271 272 274 272 271 271 271 270 270 271 271 272 272 271 270 269 270 271 272 271 271 271 270 272 273 273 272 270 270 269 270 273 276 279 280
257 258 258 258 258 258 261 263 264 265 266 265 267 269 270 273 274 272 271 270 271 271 272 271 271 271 271 270 269 268 269 270 271 271 271 268 269 270 272 271 269 267 269 270 270 271 274 276 279
Height
5908 5908 5908 5908 5907 5906 5908 5908 5908 5906 5905 5904 5902 5901 5900 5899 5899 5899 5896 5893 5892 5891 5889 5888 5887 5885 5884 5883 5882 5881 5880 5879 5878 5877 5877 5876 5876 5875 5875 5874 5874 5874 5875 5876 5876 5877 5877 5877 5878
5909 5909 5910 5908 5908 5909 5910 5909 5909 5907 5906 5904 5903 5902 5900 5899 5898 5897 5895 5894 5893 5892 5890 5889 5887 5886 5885 5884 5883 5881 5881 5880 5879 5878 5877 5877 5876 5875 5875 5874 5874 5875 5875 5876 5876 5876 5877 5877 5878
5909 5910 5909 5908 5909 5910 5911 5910 5909 5908 5906 5905 5903 5903 5901 5900 5898 5896 5895 5895 5894 5893 5891 5890 5888 5887 5886 5884 5883 5882 5881 5880 5879 5878 5878 5877 5877 5876 5875 5875 5874 5875 5875 5876 5876 5876 5877 5877 5878
5909 5910 5909 5910 5910 5912 5912 5910 5909 5908 5906 5905 5904 5903 5901 5899 5898 5897 5896 5895 5894 5893 5892 5890 5889 5888 5887 5885 5884 5882 5881 5880 5879 5879 5878 5878 5877 5876 5875 5874 5875 5875 5875 5876 5876 5877 5877 5877 5878
5908 5909 5910 5910 5912 5913 5912 5910 5909 5908 5906 5904 5904 5903 5901 5900 5898 5897 5896 5896 5894 5893 5892 5891 5890 5889 5887 5886 5884 5883 5882 5881 5880 5879 5879 5878 5877 5876 5875 5874 5874 5875 5875 5876 5876 5877 5877 5877 5878
5908 5908 5910 5910 5913 5913 5912 5910 5910 5908 5906 5905 5904 5903 5902 5900 5899 5898 5896 5896 5894 5893 5893 5892 5890 5889 5888 5886 5885 5883 5882 5881 5880 5880 5879 5879 5878 5877 5876 5875 5875 5875 5875 5876 5877 5877 5877 5878 5878
5908 5908 5909 5911 5913 5913 5911 5910 5909 5908 5906 5905 5904 5903 5901 5900 5899 5898 5897 5896 5894 5893 5893 5892 5891 5890 5888 5887 5885 5884 5882 5881 5881 5880 5879 5879 5878 5878 5877 5876 5876 5875 5875 5876 5877 5877 5878 5878 5878
5906 5907 5908 5910 5912 5912 5910 5909 5908 5908 5906 5905 5904 5903 5902 5900 5900 5899 5897 5896 5895 5894 5893 5893 5891 5890 5889 5887 5886 5884 5883 5882 5881 5880 5880 5879 5879 5879 5878 5878 5877 5877 5877 5877 5877 5877 5878 5878 5878
5905 5907 5907 5909 5911 5911 5909 5908 5907 5906 5905 5904 5903 5902 5902 5901 5900 5899 5898 5897 5896 5895 5893 5892 5892 5890 5889 5888 5886 5885 5884 5883 5882 5881 5880 5880 5879 5879 5879 5878 5878 5877 5877 5877 5877 5877 5878 5878 5878
5903 5904 5906 5908 5909 5908 5907 5907 5906 5905 5904 5902 5902 5901 5901 5900 5899 5898 5897 5896 5895 5894 5893 5892 5891 5890 5889 5888 5887 5886 5884 5883 5882 5881 5881 5880 5880 5879 5879 5878 5878 5878 5878 5877 5878 5878 5877 5877 5878
5901 5902 5903 5904 5905 5905 5905 5905 5905 5904 5903 5902 5900 5901 5900 5899 5898 5897 5896 5896 5895 5894 5893 5892 5891 5890 5889 5888 5887 5886 5885 5883 5882 5881 5881 5880 5880 5879 5879 5879 5878 5878 5878 5878 5878 5878 5877 5876 5877
5900 5901 5901 5902 5902 5902 5903 5903 5903 5903 5902 5901 5899 5899 5899 5898 5898 5897 5896 5895 5895 5894 5893 5892 5891 5890 5889 5888 5887 5886 5885 5884 5882 5881 5881 5880 5880 5879 5879 5878 5878 5877 5877 5877 5877 5877 5877 5877 5877
5897 5898 5899 5899 5899 5899 5900 5900 5901 5901 5900 5899 5898 5898 5898 5897 5897 5896 5895 5895 5894 5894 5893 5892 5891 5890 5889 5888 5887 5886 5885 5883 5882 5881 5880 5880 5879 5879 5878 5878 5877 5877 5877 5876 5876 5876 5876 5876 5875
5894 5895 5895 5896 5897 5897 5897 5898 5899 5899 5898 5897 5897 5896 5896 5896 5895 5894 5894 5893 5893 5892 5892 5891 5890 5890 5889 5888 5887 5885 5884 5883 5882 5881 5880 5879 5879 5878 5878 5877 5877 5876 5876 5876 5876 5875 5875 5875 5874
5889 5891 5892 5893 5894 5894 5895 5896 5896 5896 5896 5895 5895 5895 5894 5894 5893 5892 5891 5891 5891 5891 5890 5890 5889 5889 5888 5887 5886 5885 5884 5883 5882 5880 5879 5879 5878 5878 5877 5876 5876 5876 5876 5875 5875 5874 5874 5874 5873
5885 5888 5889 5891 5891 5892 5894 5893 5893 5894 5893 5893 5893 5893 5892 5892 5891 5891 5890 5889 5889 5889 5889 5889 5888 5887 5886 5886 5885 5884 5883 5882 5881 5880 5879 5878 5878 5877 5876 5876 5875 5875 5875 5874 5874 5873 5873 5872 5871
5884 5886 5887 5889 5890 5890 5891 5890 5891 5890 5891 5891 5890 5890 5890 5890 5889 5889 5888 5887 5887 5887 5887 5887 5886 5885 5885 5884 5883 5883 5882 5881 5880 5879 5879 5878 5877 5876 5875 5875 5874 5874 5874 5873 5873 5872 5871 5871 5870
5882 5884 5885 5886 5887 5887 5887 5887 5887 5887 5888 5887 5887 5887 5886 5886 5885 5885 5885 5884 5884 5884 5884 5884 5884 5883 5882 5882 5881 5881 5880 5879 5879 5878 5877 5876 5876 5875 5874 5873 5873 5872 5872 5872 5871 5871 5870 5869 5868
5879 5880 5883 5884 5884 5883 5883 5883 5883 5884 5884 5883 5883 5882 5882 5883 5882 5882 5882 5881 5881 5881 5881 5881 5880 5880 5879 5879 5879 5878 5878 5877 5877 5876 5875 5875 5874 5873 5873 5872 5872 5871 5871 5870 5870 5869 5868 5867 5866
5875 5876 5878 5879 5879 5879 5878 5878 5878 5878 5880 5880 5879 5878 5878 5879 5878 5878 5878 5878 5877 5878 5878 5877 5877 5876 5876 5876 5875 5875 5875 5874 5874 5874 5873 5872 5872 5871 5871 5870 5870 5869 5869 5868 5868 5867 5866 5865 5864
5871 5872 5873 5874 5874 5873 5874 5873 5873 5873 5874 5875 5874 5874 5874 5874 5874 5873 5873 5873 5873 5873 5873 5873 5873 5873 5872 5872 5872 5872 5871 5871 5871 5871 5870 5869 5869 5869 5868 5868 5868 5867 5867 5866 5865 5865 5864 5863 5862
5866 5868 5868 5869 5869 5869 5870 5868 5868 5868 5868 5869 5869 5869 5868 5868 5868 5869 5869 5869 5868 5868 5868 5868 5868 5869 5868 5868 5868 5868 5868 5868 5867 5867 5867 5866 5866 5865 5865 5865 5865 5864 5864 5863 5862 5862 5861 5860 5859
5861 5863 5863 5863 5864 5864 5864 5865 5864 5863 5863 5863 5863 5864 5864 5863 5863 5864 5864 5864 5863 5863 5863 5863 5863 5864 5864 5864 5863 5863 5864 5863 5863 5863 5863 5862 5862 5862 5862 5862 5861 5861 5860 5860 5859 5859 5858 5857 5856
5856 5857 5857 5858 5858 5859 5860 5860 5860 5858 5858 5858 5858 5859 5858 5858 5858 5858 5858 5857 5857 5857 5858 5858 5858 5859 5859 5859 5858 5858 5859 5859 5858 5858 5858 5858 5857 5857 5858 5858 5858 5857 5857 5856 5856 5855 5855 5854 5853
5852 5853 5853 5854 5854 5854 5856 5855 5855 5854 5853 5853 5853 5853 5852 5852 5852 5852 5852 5852 5851 5852 5851 5852 5852 5852 5853 5853 5853 5853 5853 5853 5853 5853 5853 5853 5853 5853 5853 5853 5853 5853 5853 5852 5852 5852 5851 5850 5850
5847 5849 5850 5850 5851 5852 5851 5850 5850 5849 5848 5848 5848 5847 5846 5845 5845 5845 5846 5845 5845 5845 5845 5845 5845 5846 5846 5847 5847 5847 5847 5847 5848 5847 5847 5848 5848 5848 5848 5848 5848 5848 5848 5848 5848 5847 5847 5846 5846
5842 5843 5844 5845 5844 5846 5846 5846 5844 5842 5841 5841 5840 5840 5839 5839 5838 5839 5839 5839 5838 5838 5838 5837 5838 5839 5839 5839 5840 5841 5841 5841 5841 5842 5842 5842 5843 5843 5843 5843 5843 5843 5843 5843 5843 5843 5842 5842 5842
5837 5838 5839 5839 5839 5839 5841 5840 5839 5836 5835 5834 5833 5832 5832 5831 5831 5831 5832 5831 5832 5831 5831 5831 5831 5832 5832 5833 5833 5834 5834 5835 5834 5835 5835 5835 5836 5837 5837 5837 5837 5837 5837 5837 5837 5838 5837 5837 5837
5831 5832 5832 5832 5833 5833 5833 5835 5831 5830 5828 5826 5824 5823 5824 5822 5823 5824 5824 5824 5824 5824 5824 5824 5824 5824 5825 5826 5826 5827 5828 5828 5828 5828 5829 5828 5829 5830 5830 5830 5831 5831 5831 5831 5832 5832 5832 5832 5832
5824 5825 5825 5825 5825 5825 5825 5827 5823 5822 5821 5819 5816 5815 5815 5815 5817 5817 5817 5817 5817 5816 5816 5816 5816 5817 5817 5818 5818 5819 5820 5820 5821 5821 5821 5821 5823 5823 5823 5823 5824 5824 5825 5825 5826 5826 5826 5826 5826